Location: Oshawa
(43.9000°N, 78.8670°W)
Time: 03:26:37
(UTC-04:00)

CARTOSAT-1 - Visible Passes

Search period start: 29 June 2016 00:00
Search period end: 09 July 2016 00:00
Orbit: 616 x 621 km, 97.9° (Epoch: 28 June)

Date Brightness Start Highest point End Pass type
(mag) Time Alt. Az. Time Alt. Az. Time Alt. Az.
29 Jun 5.9 00:28:16 12° WSW 00:29:53 14° W 00:32:05 10° WNW visible
29 Jun 3.5 23:08:07 30° SSE 23:10:12 87° ENE 23:14:33 10° NNW visible
30 Jun 5.7 21:49:06 10° E 21:51:25 14° ENE 21:53:44 10° NNE visible
30 Jun 3.8 23:25:06 31° S 23:27:00 61° W 23:31:17 10° NNW visible
01 Jul 5.2 22:04:57 10° ESE 22:08:01 20° ENE 22:11:13 10° NNE visible
01 Jul 4.5 23:42:05 27° SSW 23:43:50 40° W 23:47:55 10° NNW visible
02 Jul 4.7 22:21:56 16° ESE 22:24:40 29° ENE 22:28:24 10° N visible
02 Jul 5.1 23:59:04 21° SW 00:00:42 27° W 00:04:24 10° NW visible
03 Jul 4.2 22:38:56 21° SE 22:41:21 43° ENE 22:45:27 10° N visible
04 Jul 5.6 00:16:04 15° WSW 00:17:38 18° W 00:20:38 10° NW visible
04 Jul 3.6 22:55:56 28° SSE 22:58:05 65° ENE 23:02:23 10° N visible
05 Jul 6.0 00:33:04 10° WSW 00:34:35 12° W 00:36:20 10° WNW visible
05 Jul 5.8 21:38:18 10° ENE 21:39:26 11° ENE 21:40:36 10° NE visible
05 Jul 3.5 23:12:55 33° S 23:14:51 83° WSW 23:19:12 10° NNW visible
06 Jul 5.5 21:53:26 10° E 21:56:01 16° ENE 21:58:37 10° NNE visible
06 Jul 4.0 23:29:55 32° SSW 23:31:40 54° W 23:35:55 10° NNW visible
07 Jul 5.1 22:09:47 12° ESE 22:12:39 22° ENE 22:16:00 10° NNE visible
07 Jul 4.7 23:46:55 27° SW 23:48:31 36° W 23:52:31 10° NNW visible
08 Jul 4.6 22:26:47 18° ESE 22:29:17 32° ENE 22:33:09 10° N visible
